Terug naar catalogus

STARLINK-34435

ActiefCommunicatieVLEO
NORAD 64602·PAYLOAD·🇺🇸 United States

Gelanceerd Jun 25, 2025 vanaf Cape Canaveral Space Force Station

Loading…

Volgende Passages (komende 24 uur)

TLE

VersSource: CelesTrak SupGP

Epoch: Sep 15, 2026, 02:25 UTC

1 64602C 25137J   26258.10118056 -.00039784  00000+0 -11751-2 0  2588
2 64602  53.1567 172.8967 0001306  84.0542 164.1265 15.34418708    17

Volg STARLINK-34435 in realtime met AllMySat

Download on the App Store